STARLINK-37543, 68911

Orbit data source: Space-Track

STARLINK-37543, 68911 is a payload satellite owned by SpaceX/Seattle (US) in SSO that was launched on Thu, 30 Apr 2026 UTC via an FALCON 9 launch vehicle from the Air Force Western Test Range (AFWTR). Payload-class satellites include a variety of spacecraft equipped with specific instruments for various scientific and technological missions. These include communications satellites like Starlink; space stations such as the ISS; scientific satellites like the Hubble; Earth observation satellites from companies like Planet Labs, Umbra, and HawkEye 360; GPS; miniature CubeSats for education and research; and military/defense satellites.

Loading next visibility...
Identifier
68911, 2026-097S
Orbit
SSO
Country
Flag of USUS
Related business
Manufacturer
SpaceX/Seattle
Mission
Operational spacecraft
Bus & Motor
STARLINK V2MO, Unknown motor
Mass
575 kg wet, ~530 kg dry
Launch date (UTC)
2026-04-30 (6 days ago)
Launch vehicle
FALCON 9
Launch site
Air Force Western Test Range (AFWTR)
Object type
Payload
Rocket body
Debris
Shape & HBR
Unknown
Radar Cross Section
RCS unknown

Expand to show TLE details & history
Last TLE update: 5 hours ago

TLE from 5 hours ago
0 STARLINK-37543
1 68911U 26097S   26126.25002315 -.02199036  13331-2 -60899-2 0  9993
2 68911  97.2878 321.3067 0001699  89.7928 132.4325 15.93988706  2185
Epoch: 2026-05-06T06:00Z
TLE epoch observation values (Epoch: 2026-05-06T06:00:02.000Z)
Latitude
-42.10247°
Longitude
-179.41338°
Altitude
308.191 km
Speed
7.721 km/s
True Right ascension
08h 58m 49s
True Declination
-41° 55' 12"
Sunlit
Object was in daylight at epoch
Visualization orbit readout
Latitude
Unknown
Longitude
Unknown
Altitude
Unknown
Speed
Unknown
Apparent Right ascension
Unknown
Apparent Declination
Unknown
Sunlit
N/A
Visualization observer readout
Local Sidereal Time
18:52:18
Azimuth
Unknown
Elevation
Unknown
Doppler factor
Unknown
Orbital elements
Apogee altitude
289.129 km
Perigee altitude
286.864 km
Semi-major axis
6,666.134 km
Eccentricity
0.00017
Inclination
97.2878°
RAAN
321.3067°
Arg. of periapsis
89.7928°
True anomaly
132.44687°
Mean anomaly
132.4325°
Eccentric anomaly
132.43968°
Mean motion
3.98779 °/min
Orbital period
90.28 mins
BSTAR
-0.0060899
Loading maneuver chart data...
Computing Atmospheric mass density...
Loading historical data...
Loading historical data...
Loading historical data...
Loading historical data...
Loading historical data...
Loading historical data...
Loading historical data...

Documentation

Showing up to 5 results
|